Location: Kellogg
(38.0159°N, 90.0546°W)
Time: 02:34:00
(UTC+00:00)

SR - Pass Details

Date: 20 September 2024
Orbit: 577 x 855 km, 66.7° (Epoch: 10 October)

Event Time Altitude Azimuth Distance (km) Brightness Sun altitude
Rises 04:30:45 0° 309° (NW) 3,036 ? -46.6°
Enters shadow 04:31:38 - 304° (NW) 2,769 ? -46.7°
Reaches altitude 10° 04:34:01 10° 285° (WNW) 2,177 - -47.0°
Maximum altitude 04:36:38 14° 253° (WSW) 1,936 - -47.2°
Drops below altitude 10° 04:39:20 10° 222° (SW) 2,268 - -47.5°
Sets 04:42:52 0° 198° (SSW) 3,251 - -47.8°
